Time,TemperatureF,DewpointF,PressureIn,WindDirection,WindDirectionDegrees,WindSpeedMPH,WindSpeedGustMPH,Humidity,HourlyPrecipIn,Conditions,Clouds,dailyrainin,SoftwareType,DateUTC
2013-08-14 00:02:00,55.5,54.1,30.00,SSE,153,1.0,6.0,95,0.00,,,0.00,Wunderground v.1.15,2013-08-14 07:02:00,
2013-08-14 00:07:00,55.6,54.2,30.00,SSE,152,2.0,6.0,95,0.00,,,0.00,Wunderground v.1.15,2013-08-14 07:07:00,
2013-08-14 00:12:00,55.6,54.2,30.00,SSE,152,2.0,2.0,95,0.00,,,0.00,Wunderground v.1.15,2013-08-14 07:12:00,
2013-08-14 00:22:00,55.7,54.3,30.00,SSE,152,1.0,1.0,95,0.00,,,0.00,Wunderground v.1.15,2013-08-14 07:22:00,
2013-08-14 00:32:00,55.8,54.7,30.01,SSE,153,1.0,8.0,96,0.00,,,0.00,Wunderground v.1.15,2013-08-14 07:32:00,
2013-08-14 00:42:00,55.8,54.7,30.00,SSE,153,2.0,5.0,96,0.00,,,0.00,Wunderground v.1.15,2013-08-14 07:42:00,
2013-08-14 00:47:00,55.8,54.7,30.00,SSE,151,3.0,6.0,96,0.00,,,0.00,Wunderground v.1.15,2013-08-14 07:47:00,
2013-08-14 00:57:00,55.7,54.6,30.00,SSE,151,2.0,5.0,96,0.00,,,0.00,Wunderground v.1.15,2013-08-14 07:57:00,
2013-08-14 01:07:00,55.5,54.4,30.00,SSE,151,3.0,6.0,96,0.00,,,0.00,Wunderground v.1.15,2013-08-14 08:07:00,
2013-08-14 01:17:00,55.5,54.4,30.00,SSE,151,1.0,3.0,96,0.00,,,0.00,Wunderground v.1.15,2013-08-14 08:17:00,
2013-08-14 01:27:00,55.3,54.2,30.01,SSE,151,1.0,4.0,96,0.00,,,0.00,Wunderground v.1.15,2013-08-14 08:27:00,
2013-08-14 01:32:00,55.1,54.0,30.00,SSE,151,1.0,1.0,96,0.00,,,0.00,Wunderground v.1.15,2013-08-14 08:32:00,
2013-08-14 01:42:00,55.1,54.0,30.01,SSE,151,1.0,5.0,96,0.00,,,0.00,Wunderground v.1.15,2013-08-14 08:42:00,
2013-08-14 01:52:00,54.8,53.7,30.01,SSE,154,2.0,2.0,96,0.00,,,0.00,Wunderground v.1.15,2013-08-14 08:52:00,
2013-08-14 01:57:00,54.5,53.4,30.01,SSE,154,2.0,6.0,96,0.00,,,0.00,Wunderground v.1.15,2013-08-14 08:57:00,
2013-08-14 02:07:00,54.4,53.3,30.00,SSE,152,3.0,7.0,96,0.00,,,0.00,Wunderground v.1.15,2013-08-14 09:07:00,
2013-08-14 02:12:00,54.6,53.5,30.00,SSE,152,4.0,7.0,96,0.00,,,0.00,Wunderground v.1.15,2013-08-14 09:12:00,
2013-08-14 02:17:00,54.7,53.6,30.00,SSE,150,3.0,7.0,96,0.00,,,0.00,Wunderground v.1.15,2013-08-14 09:17:00,
2013-08-14 02:27:00,55.0,54.2,29.99,ESE,119,2.0,4.0,97,0.00,,,0.00,Wunderground v.1.15,2013-08-14 09:27:00,
2013-08-14 02:37:00,55.1,54.3,29.99,ESE,107,3.0,6.0,97,0.00,,,0.00,Wunderground v.1.15,2013-08-14 09:37:00,
2013-08-14 02:42:00,55.1,54.3,30.00,ESE,107,2.0,7.0,97,0.00,,,0.00,Wunderground v.1.15,2013-08-14 09:42:00,
2013-08-14 02:47:00,55.1,54.3,30.00,ESE,107,1.0,7.0,97,0.00,,,0.00,Wunderground v.1.15,2013-08-14 09:47:00,
2013-08-14 02:57:00,55.2,54.4,30.00,ESE,107,0.0,2.0,97,0.00,,,0.00,Wunderground v.1.15,2013-08-14 09:57:00,
2013-08-14 03:07:00,55.2,54.4,30.00,ESE,107,0.0,2.0,97,0.00,,,0.00,Wunderground v.1.15,2013-08-14 10:07:00,
2013-08-14 03:12:00,55.3,54.5,29.99,ESE,107,1.0,2.0,97,0.00,,,0.00,Wunderground v.1.15,2013-08-14 10:12:00,
2013-08-14 03:22:00,55.3,54.5,30.00,ESE,107,1.0,4.0,97,0.00,,,0.00,Wunderground v.1.15,2013-08-14 10:22:00,
2013-08-14 03:27:00,55.3,54.5,30.00,ESE,107,0.0,4.0,97,0.00,,,0.00,Wunderground v.1.15,2013-08-14 10:27:00,
2013-08-14 03:37:00,55.3,54.5,30.00,ESE,107,0.0,1.0,97,0.00,,,0.00,Wunderground v.1.15,2013-08-14 10:37:00,
2013-08-14 03:47:00,55.2,54.4,29.99,ESE,107,0.0,1.0,97,0.00,,,0.00,Wunderground v.1.15,2013-08-14 10:47:00,
2013-08-14 03:57:00,55.1,54.3,30.00,ESE,107,0.0,2.0,97,0.00,,,0.00,Wunderground v.1.15,2013-08-14 10:57:00,
2013-08-14 04:07:00,55.0,54.2,29.99,ESE,107,0.0,1.0,97,0.00,,,0.00,Wunderground v.1.15,2013-08-14 11:07:00,
2013-08-14 04:17:00,54.9,54.1,29.99,ESE,107,2.0,2.0,97,0.00,,,0.00,Wunderground v.1.15,2013-08-14 11:17:00,
2013-08-14 04:27:00,54.8,54.0,29.99,ESE,107,1.0,4.0,97,0.00,,,0.00,Wunderground v.1.15,2013-08-14 11:27:00,
2013-08-14 04:32:00,55.0,54.2,29.99,ESE,107,2.0,2.0,97,0.00,,,0.00,Wunderground v.1.15,2013-08-14 11:32:00,
2013-08-14 04:42:00,55.1,54.3,29.98,ESE,107,2.0,2.0,97,0.00,,,0.00,Wunderground v.1.15,2013-08-14 11:42:00,
2013-08-14 04:52:00,55.1,54.3,29.98,ESE,107,2.0,4.0,97,0.00,,,0.00,Wunderground v.1.15,2013-08-14 11:52:00,
2013-08-14 05:02:00,55.2,54.4,29.98,ESE,107,2.0,5.0,97,0.00,,,0.00,Wunderground v.1.15,2013-08-14 12:02:00,
2013-08-14 05:12:00,55.2,54.4,29.97,ESE,105,3.0,3.0,97,0.00,,,0.00,Wunderground v.1.15,2013-08-14 12:12:00,
2013-08-14 05:22:00,55.3,54.5,29.98,ESE,103,2.0,2.0,97,0.00,,,0.00,Wunderground v.1.15,2013-08-14 12:22:00,
2013-08-14 05:32:00,55.4,54.6,29.98,ESE,103,1.0,1.0,97,0.00,,,0.00,Wunderground v.1.15,2013-08-14 12:32:00,
2013-08-14 05:42:00,55.3,54.2,29.98,ESE,103,0.0,2.0,96,0.00,,,0.00,Wunderground v.1.15,2013-08-14 12:42:00,
2013-08-14 05:47:00,55.3,54.2,29.98,ESE,103,1.0,4.0,96,0.00,,,0.00,Wunderground v.1.15,2013-08-14 12:47:00,
2013-08-14 05:52:00,55.1,54.0,29.99,ESE,103,0.0,2.0,96,0.00,,,0.00,Wunderground v.1.15,2013-08-14 12:52:00,
2013-08-14 06:02:00,55.1,54.3,29.98,ESE,103,0.0,0.0,97,0.00,,,0.00,Wunderground v.1.15,2013-08-14 13:02:00,
2013-08-14 06:12:00,55.1,54.3,29.98,ESE,103,1.0,1.0,97,0.00,,,0.00,Wunderground v.1.15,2013-08-14 13:12:00,
2013-08-14 06:22:00,55.1,54.3,29.98,ESE,103,1.0,5.0,97,0.00,,,0.00,Wunderground v.1.15,2013-08-14 13:22:00,
2013-08-14 06:27:00,55.1,54.3,29.98,ESE,103,1.0,5.0,97,0.00,,,0.00,Wunderground v.1.15,2013-08-14 13:27:00,
2013-08-14 06:37:00,55.1,54.3,29.97,ESE,103,3.0,5.0,97,0.00,,,0.00,Wunderground v.1.15,2013-08-14 13:37:00,
2013-08-14 06:42:00,55.1,54.3,29.97,ESE,103,3.0,3.0,97,0.00,,,0.00,Wunderground v.1.15,2013-08-14 13:42:00,
2013-08-14 06:52:00,55.1,54.3,29.97,ESE,103,0.0,4.0,97,0.00,,,0.00,Wunderground v.1.15,2013-08-14 13:52:00,
2013-08-14 07:02:00,55.0,54.2,29.97,ESE,103,1.0,5.0,97,0.00,,,0.00,Wunderground v.1.15,2013-08-14 14:02:00,
2013-08-14 07:12:00,55.1,54.3,29.97,ESE,103,3.0,3.0,97,0.00,,,0.00,Wunderground v.1.15,2013-08-14 14:12:00,
2013-08-14 07:22:00,55.2,54.1,29.97,ESE,103,1.0,1.0,96,0.00,,,0.00,Wunderground v.1.15,2013-08-14 14:22:00,
2013-08-14 07:32:00,55.3,54.2,29.97,ESE,103,0.0,2.0,96,0.00,,,0.00,Wunderground v.1.15,2013-08-14 14:32:00,
2013-08-14 07:42:00,55.5,54.4,29.97,ESE,103,0.0,5.0,96,0.00,,,0.00,Wunderground v.1.15,2013-08-14 14:42:00,
2013-08-14 07:47:00,55.6,54.5,29.97,ESE,103,0.0,5.0,96,0.00,,,0.00,Wunderground v.1.15,2013-08-14 14:47:00,
2013-08-14 07:57:00,55.8,55.0,29.97,ESE,103,0.0,1.0,97,0.00,,,0.00,Wunderground v.1.15,2013-08-14 14:57:00,
2013-08-14 08:02:00,56.0,54.9,29.97,ESE,104,0.0,1.0,96,0.00,,,0.00,Wunderground v.1.15,2013-08-14 15:02:00,
2013-08-14 08:12:00,56.5,55.4,29.97,ESE,103,1.0,1.0,96,0.00,,,0.00,Wunderground v.1.15,2013-08-14 15:12:00,
2013-08-14 08:22:00,57.7,56.9,29.97,ESE,104,1.0,4.0,97,0.00,,,0.00,Wunderground v.1.15,2013-08-14 15:22:00,
2013-08-14 08:32:00,59.2,58.1,29.97,ESE,104,1.0,5.0,96,0.00,,,0.00,Wunderground v.1.15,2013-08-14 15:32:00,
2013-08-14 08:42:00,60.0,58.3,29.98,ESE,104,0.0,4.0,94,0.00,,,0.00,Wunderground v.1.15,2013-08-14 15:42:00,
2013-08-14 08:57:00,60.7,57.7,29.98,ESE,117,2.0,5.0,90,0.00,,,0.00,Wunderground v.1.15,2013-08-14 15:57:00,
2013-08-14 09:07:00,60.7,57.1,29.98,ESE,120,2.0,7.0,88,0.00,,,0.00,Wunderground v.1.15,2013-08-14 16:07:00,
2013-08-14 09:12:00,60.8,56.6,29.98,South,187,3.0,7.0,86,0.00,,,0.00,Wunderground v.1.15,2013-08-14 16:12:00,
2013-08-14 09:22:00,61.0,56.5,29.99,South,181,1.0,5.0,85,0.00,,,0.00,Wunderground v.1.15,2013-08-14 16:22:00,
2013-08-14 09:32:00,61.1,56.2,29.98,South,181,2.0,2.0,84,0.00,,,0.00,Wunderground v.1.15,2013-08-14 16:32:00,
2013-08-14 09:42:00,61.2,56.0,29.99,South,173,3.0,6.0,83,0.00,,,0.00,Wunderground v.1.15,2013-08-14 16:42:00,
2013-08-14 09:47:00,61.3,55.8,29.99,SW,218,4.0,8.0,82,0.00,,,0.00,Wunderground v.1.15,2013-08-14 16:47:00,
2013-08-14 09:57:00,61.7,55.5,29.99,SSW,198,3.0,9.0,80,0.00,,,0.00,Wunderground v.1.15,2013-08-14 16:57:00,
2013-08-14 10:07:00,61.4,54.5,29.99,SW,227,6.0,10.0,78,0.00,,,0.00,Wunderground v.1.15,2013-08-14 17:07:00,
2013-08-14 10:12:00,61.2,54.3,29.99,SSW,193,6.0,6.0,78,0.00,,,0.00,Wunderground v.1.15,2013-08-14 17:12:00,
2013-08-14 10:22:00,61.0,54.4,29.99,South,189,6.0,12.0,79,0.00,,,0.00,Wunderground v.1.15,2013-08-14 17:22:00,
2013-08-14 10:27:00,60.5,54.3,29.99,SSW,209,7.0,15.0,80,0.00,,,0.00,Wunderground v.1.15,2013-08-14 17:27:00,